timestamp,surface_pressure_avg,surface_temp_avg,battery_voltage,lat,long
2019-11-09 00:09:01+00:00,300.8963,8.48,12.73,47.84626,-54.09684
2019-11-09 00:19:01+00:00,286.2731,8.47,12.65,47.84626,-54.09684
2019-11-09 00:29:01+00:00,286.1313,8.46,12.65,47.84626,-54.09684
2019-11-09 00:39:01+00:00,283.0364,8.48,12.65,47.84626,-54.09684
2019-11-09 00:49:01+00:00,271.5797,8.48,12.65,47.84626,-54.09684
2019-11-09 00:59:01+00:00,259.3198,8.47,12.65,47.84626,-54.09684
2019-11-09 01:09:01+00:00,259.9881,8.47,12.65,47.84626,-54.09684
2019-11-09 01:19:01+00:00,252.2864,8.2,12.65,47.84626,-54.09684
2019-11-09 01:29:01+00:00,246.7114,8.0,12.65,47.84626,-54.09684
2019-11-09 01:39:01+00:00,241.5881,8.1,12.65,47.84626,-54.09684
2019-11-09 01:49:01+00:00,233.5431,8.09,12.65,47.84626,-54.09684
2019-11-09 01:59:01+00:00,227.1347,8.0,12.65,47.84626,-54.09684
2019-11-09 02:09:01+00:00,223.8765,8.09,12.65,47.84626,-54.09684
2019-11-09 02:19:01+00:00,215.4898,8.1,12.65,47.84626,-54.09684
2019-11-09 02:29:01+00:00,211.8681,8.09,12.65,47.84626,-54.09684
2019-11-09 02:39:01+00:00,218.1931,8.1,12.65,47.84626,-54.09684
2019-11-09 02:49:01+00:00,219.0781,8.0,12.65,47.84626,-54.09684
2019-11-09 02:59:01+00:00,210.3514,7.9,12.65,47.84626,-54.09684
2019-11-09 03:09:01+00:00,214.8564,7.8,12.65,47.84626,-54.09684
2019-11-09 03:19:01+00:00,220.3648,7.9,12.65,47.84626,-54.09684
2019-11-09 03:29:01+00:00,215.4814,7.7,12.65,47.84626,-54.09684
2019-11-09 03:39:01+00:00,215.3698,7.75,12.65,47.84626,-54.09684
2019-11-09 03:49:01+00:00,222.7014,8.1,12.65,47.84626,-54.09684
2019-11-09 03:59:01+00:00,223.2814,8.2,12.65,47.84626,-54.09684
2019-11-09 04:09:01+00:00,219.4548,8.2,12.65,47.84626,-54.09684
2019-11-09 04:19:01+00:00,223.2231,8.2,12.65,47.84626,-54.09684
2019-11-09 04:29:01+00:00,228.4065,8.28,12.65,47.84626,-54.09684
2019-11-09 04:39:01+00:00,226.9698,8.3,12.65,47.84626,-54.09684
2019-11-09 04:49:01+00:00,229.9364,8.29,12.65,47.84626,-54.09684
2019-11-09 04:59:01+00:00,243.9581,8.32,12.65,47.84626,-54.09684
2019-11-09 05:09:01+00:00,246.2498,8.4,12.65,47.84626,-54.09684
2019-11-09 05:19:01+00:00,241.2365,8.33,12.65,47.84626,-54.09684
2019-11-09 05:29:01+00:00,241.3531,8.34,12.65,47.84626,-54.09684
2019-11-09 05:39:01+00:00,254.9147,8.38,12.65,47.84626,-54.09684
2019-11-09 05:49:01+00:00,253.9581,8.4,12.65,47.84626,-54.09684
2019-11-09 05:59:01+00:00,248.3581,8.38,12.65,47.84626,-54.09684
2019-11-09 06:09:01+00:00,254.4431,8.39,12.65,47.84626,-54.09684
2019-11-09 06:19:01+00:00,268.9413,8.4,12.57,47.84626,-54.09684
2019-11-09 06:29:01+00:00,265.1897,8.4,12.57,47.84626,-54.09684
2019-11-09 06:39:01+00:00,262.2448,8.38,12.57,47.84626,-54.09684
2019-11-09 06:49:01+00:00,278.2031,8.4,12.57,47.84626,-54.09684
2019-11-09 06:59:01+00:00,287.9597,8.4,12.57,47.84626,-54.09684
2019-11-09 07:09:01+00:00,281.3314,8.4,12.57,47.84626,-54.09684
2019-11-09 07:19:01+00:00,288.2114,8.4,12.57,47.84626,-54.09684
2019-11-09 07:29:01+00:00,307.163,8.4,12.57,47.84626,-54.09684
2019-11-09 07:39:01+00:00,312.573,8.4,12.57,47.84626,-54.09684
2019-11-09 07:49:01+00:00,305.4564,8.4,12.57,47.84626,-54.09684
2019-11-09 07:59:01+00:00,312.938,8.4,12.57,47.84626,-54.09684
2019-11-09 08:09:01+00:00,324.0746,8.43,12.57,47.84626,-54.09684
2019-11-09 08:19:01+00:00,328.4813,8.4,12.57,47.84626,-54.09684
2019-11-09 08:29:01+00:00,328.7897,8.4,12.57,47.84626,-54.09684
2019-11-09 08:39:01+00:00,334.9413,8.3,12.57,47.84626,-54.09684
2019-11-09 08:49:01+00:00,338.4764,8.24,12.57,47.84626,-54.09684
2019-11-09 08:59:01+00:00,338.3746,8.3,12.57,47.84626,-54.09684
2019-11-09 09:09:01+00:00,336.5314,8.4,12.57,47.84626,-54.09684
2019-11-09 09:19:01+00:00,344.3079,8.42,12.57,47.84626,-54.09684
2019-11-09 09:29:01+00:00,350.7363,8.49,12.57,47.84626,-54.09684
2019-11-09 09:39:01+00:00,342.1496,8.4,12.57,47.84626,-54.09684
2019-11-09 09:49:01+00:00,335.4296,8.5,12.57,47.84626,-54.09684
2019-11-09 09:59:01+00:00,339.7414,8.5,12.57,47.84626,-54.09684
2019-11-09 10:09:01+00:00,338.8963,8.5,12.57,47.84626,-54.09684
2019-11-09 10:19:01+00:00,328.463,8.5,12.57,47.84626,-54.09684
2019-11-09 10:29:01+00:00,324.0546,8.5,12.57,47.84626,-54.09684
2019-11-09 10:39:01+00:00,327.4413,8.5,12.57,47.84626,-54.09684
2019-11-09 10:49:01+00:00,325.3464,8.5,12.57,47.84626,-54.09684
2019-11-09 10:59:01+00:00,319.6614,8.48,12.57,47.84626,-54.09684
2019-11-09 11:09:01+00:00,317.8764,8.48,12.57,47.84626,-54.09684
2019-11-09 11:19:01+00:00,315.9896,8.48,12.57,47.84626,-54.09684
2019-11-09 11:29:01+00:00,312.8081,8.47,12.57,47.84626,-54.09684
2019-11-09 11:39:01+00:00,309.7681,8.47,12.57,47.84626,-54.09684
2019-11-09 11:49:01+00:00,307.0697,8.44,12.57,47.84626,-54.09684
2019-11-09 11:59:01+00:00,301.7497,8.43,12.57,47.84626,-54.09684
2019-11-09 12:09:01+00:00,298.413,8.42,12.57,47.84626,-54.09684
2019-11-09 12:19:01+00:00,292.8596,8.45,13.84,47.84626,-54.09684
2019-11-09 12:29:01+00:00,287.1147,8.49,13.84,47.84626,-54.09684
2019-11-09 12:39:01+00:00,282.2081,8.5,13.84,47.84626,-54.09684
2019-11-09 12:49:01+00:00,280.1547,8.5,13.84,47.84626,-54.09684
2019-11-09 12:59:01+00:00,274.9897,8.5,13.84,47.84626,-54.09684
2019-11-09 13:09:01+00:00,265.7114,8.5,13.84,47.84626,-54.09684
2019-11-09 13:19:01+00:00,261.0197,8.5,14.64,47.84626,-54.09684
2019-11-09 13:29:01+00:00,259.0614,8.5,14.64,47.84626,-54.09684
2019-11-09 13:39:01+00:00,252.8614,8.5,14.64,47.84626,-54.09684
2019-11-09 13:49:01+00:00,244.6764,8.5,14.64,47.84626,-54.09684
2019-11-09 13:59:01+00:00,243.4164,8.5,14.64,47.84626,-54.09684
2019-11-09 14:09:01+00:00,242.6864,8.5,14.64,47.84626,-54.09684
2019-11-09 14:19:01+00:00,236.3781,8.5,14.64,47.84626,-54.09684
2019-11-09 14:29:01+00:00,228.4898,8.5,14.64,47.84626,-54.09684
2019-11-09 14:39:01+00:00,230.3581,8.5,14.64,47.84626,-54.09684
2019-11-09 14:49:01+00:00,229.1081,8.51,14.64,47.84626,-54.09684
2019-11-09 14:59:01+00:00,224.5214,8.58,14.64,47.84626,-54.09684
2019-11-09 15:09:01+00:00,218.8748,8.6,14.64,47.84626,-54.09684
2019-11-09 15:19:01+00:00,222.9764,8.6,14.72,47.84626,-54.09684
2019-11-09 15:29:01+00:00,225.4498,8.6,14.72,47.84626,-54.09684
2019-11-09 15:39:01+00:00,221.2081,8.6,14.72,47.84626,-54.09684
2019-11-09 15:49:01+00:00,216.8947,8.6,14.72,47.84626,-54.09684
2019-11-09 15:59:01+00:00,219.5314,8.6,14.72,47.84626,-54.09684
2019-11-09 16:09:01+00:00,223.3031,8.6,14.72,47.84626,-54.09684
2019-11-09 16:19:01+00:00,219.9131,8.6,14.64,47.84626,-54.09684
2019-11-09 16:29:01+00:00,215.9265,8.6,14.64,47.84626,-54.09684
2019-11-09 16:39:01+00:00,212.8731,8.68,14.64,47.84626,-54.09684
2019-11-09 16:49:01+00:00,211.1465,8.7,14.64,47.84626,-54.09684
2019-11-09 16:59:01+00:00,214.4064,8.7,14.64,47.84626,-54.09684
2019-11-09 17:09:01+00:00,222.0214,8.7,14.64,47.84626,-54.09684
2019-11-09 17:19:01+00:00,221.8965,8.72,14.48,47.84626,-54.09684
2019-11-09 17:29:01+00:00,223.7847,8.76,14.48,47.84626,-54.09684
2019-11-09 17:39:01+00:00,230.0581,8.8,14.48,47.84626,-54.09684
2019-11-09 17:49:01+00:00,227.1981,8.8,14.48,47.84626,-54.09684
2019-11-09 17:59:01+00:00,225.2098,8.8,14.48,47.84626,-54.09684
2019-11-09 18:09:01+00:00,229.7431,8.79,14.48,47.84626,-54.09684
2019-11-09 18:19:01+00:00,234.5081,8.77,14.08,47.84626,-54.09684
2019-11-09 18:29:01+00:00,233.5714,8.7,14.08,47.84626,-54.09684
2019-11-09 18:39:01+00:00,237.4448,8.7,14.08,47.84626,-54.09684
2019-11-09 18:49:01+00:00,251.3764,8.7,14.08,47.84626,-54.09684
2019-11-09 18:59:01+00:00,260.4114,8.7,14.08,47.84626,-54.09684
2019-11-09 19:09:01+00:00,261.963,8.66,14.08,47.84626,-54.09684
2019-11-09 19:19:01+00:00,270.0897,8.61,14.08,47.84626,-54.09684
2019-11-09 19:29:01+00:00,284.7681,8.6,14.08,47.84626,-54.09684
2019-11-09 19:39:01+00:00,290.6346,8.56,14.08,47.84626,-54.09684
2019-11-09 19:49:01+00:00,289.8447,8.5,14.08,47.84626,-54.09684
2019-11-09 19:59:01+00:00,299.7297,8.52,14.08,47.84626,-54.09684
2019-11-09 20:09:01+00:00,307.7647,8.56,14.08,47.84626,-54.09684
2019-11-09 20:19:01+00:00,306.158,8.5,13.6,47.84626,-54.09684
2019-11-09 20:29:01+00:00,316.9646,8.5,13.6,47.84626,-54.09684
2019-11-09 20:39:01+00:00,326.2347,8.5,13.6,47.84626,-54.09684
2019-11-09 20:49:01+00:00,322.0363,8.5,13.6,47.84626,-54.09684
2019-11-09 20:59:01+00:00,319.423,8.49,13.6,47.84626,-54.09684
2019-11-09 21:09:01+00:00,330.9929,8.48,13.6,47.84626,-54.09684
2019-11-09 21:19:01+00:00,335.7662,8.46,13.21,47.84626,-54.09684
2019-11-09 21:29:01+00:00,331.2113,8.4,13.21,47.84626,-54.09684
2019-11-09 21:39:01+00:00,335.1980000000001,8.4,13.21,47.84626,-54.09684
2019-11-09 21:49:01+00:00,341.4246,8.4,13.21,47.84626,-54.09684
2019-11-09 21:59:01+00:00,337.4014,8.4,13.21,47.84626,-54.09684
2019-11-09 22:09:01+00:00,336.8879,8.39,13.21,47.84626,-54.09684
2019-11-09 22:19:01+00:00,344.18300000000005,8.4,12.89,47.84626,-54.09684
2019-11-09 22:29:01+00:00,349.9763,8.4,12.89,47.84626,-54.09684
2019-11-09 22:39:01+00:00,345.1063,8.39,12.89,47.84626,-54.09684
2019-11-09 22:49:01+00:00,340.3847,8.39,12.89,47.84626,-54.09684
2019-11-09 22:59:01+00:00,343.1213,8.4,12.89,47.84626,-54.09684
2019-11-09 23:09:01+00:00,341.4796,8.4,12.89,47.84626,-54.09684
2019-11-09 23:19:01+00:00,334.338,8.4,12.73,47.84626,-54.09684
2019-11-09 23:29:01+00:00,335.0145,8.3,12.73,47.84626,-54.09684
2019-11-09 23:39:01+00:00,335.1829,8.29,12.73,47.84626,-54.09684
2019-11-09 23:49:01+00:00,331.8997,8.2,12.73,47.84626,-54.09684
2019-11-09 23:59:01+00:00,324.8846,8.2,12.73,47.84626,-54.09684
